NGTAPKMJ

Guest
Details From NGTA - Bonriki International
To PKMJ - MARSHALL ISLANDS INTL
Flight Number -
Tags generated
Created
Modified
Stats Distance 360 nm / 667 km
Max Altitude 34,000 ft / 10,363 m
Waypoints 5
Social Downloads 5
Likes 0
Share VATSIM

Download

Looking for another format? Having issues loading an existing format? Contact us
Advertisement - Login to hide

Notes

Basic altitude profile: - Ascent Rate: 2500ft/min - Ascent Speed: 250kts - Cruise Altitude: 35000ft - Cruise Speed: 420kts - Descent Rate: 1500ft/min - Descent Speed: 250kts

Route

NGTA BO R332 MAJ PKMJ

ID Type Via Altitude Latitude Longitude Leg Dist Tot Dist Heading (true) Name
O NGTA APT - 0 ft / 0 m 1.38161˚ 173.14691˚ - 0 nm - Bonriki International
BO NDB - 0 ft / 0 m 1.37972˚ 173.14583˚ 0 nm 0 nm 210° / 210° BONRIKI NDB
VAVEE FIX R332 (AWY-HI) 34,000 ft / 10,363 m 3.50000˚ 172.50000˚ 133 nm 133 nm 343° / 343° -
MAJ NDB R332 (AWY-HI) 6,000 ft / 1,829 m 7.06883˚ 171.28183˚ 226 nm 359 nm 341° / 341° MAJURO NDB
O PKMJ APT - 0 ft / 0 m 7.06476˚ 171.27202˚ 0 nm 360 nm 247° / 247° MARSHALL ISLANDS INTL

Altitude Profile

Advertisement - Login to hide

Weather


0- 5 10 15 20 25 30 35+ Temperature / ° C

Clouds and Precipitation
Forecast for 2018-05-21 06:00 UTC. Updated 2 hours ago

Ground ~20,000 ft ~40,000 ft Winds

NGTA

Details ICAO NGTA (TRW)
Name Bonriki International
Region Kiribati and Tuvalu
Timezone Pacific/Tarawa (UTC+12.0)
Stats Elevation 9 ft / 3 m (AMSL)
Location 1.381608° 173.146907°
Runways 1
Magnetic Variation 9.242° E

METAR

NGTA 210700Z 08011KT 9999 FEW018TCU BKN100 28/25 Q1008

Decode

TAF

TAF NGTA 210526Z 2106/2206 05012KT 9999 SCT018 BKN040 TEMPO 2106/2206 8000 SHRA BKN018

Decode

Departure Runways

ID Width Length Bearing (true) Bearing (mag) Surface Threshold Offset Overrun Length
09 131 ft / 40 m 6,622 ft / 2,018 m 97.30° 88.06° Asphalt 0 ft / 0 m 213 ft / 65 m
27 131 ft / 40 m 6,622 ft / 2,018 m 277.30° 268.06° Asphalt 269 ft / 82 m 197 ft / 60 m

PKMJ

Details ICAO PKMJ (MAJ)
Name MARSHALL ISLANDS INTL
Region Marshall Islands
Timezone Pacific/Majuro (UTC+12.0)
Stats Elevation 6 ft / 2 m (AMSL)
Location 7.064760° 171.272023°
Runways 1
Magnetic Variation 8.436° E

METAR

PKMJ 210653Z 06015KT 15SM FEW015 SCT050 BKN300 30/25 A2982

Decode

TAF

TAF TAF PKMJ 210527Z 2106/2206 08012KT P6SM VCSH SCT015 SCT050

Decode

Destination Runways

ID Width Length Bearing (true) Bearing (mag) Surface Threshold Offset Overrun Length
07 150 ft / 46 m 7,898 ft / 2,407 m 76.08° 67.64° Asphalt 0 ft / 0 m 200 ft / 61 m
25 150 ft / 46 m 7,898 ft / 2,407 m 256.08° 247.64° Asphalt 0 ft / 0 m 200 ft / 61 m

Popular Alternatives